Powrót do katalogu

YUNYAO-1 27

AktywnyPogodaSSO
NORAD 65490·PAYLOAD·🇨🇳 China
Ta nazwa satelity nie została jeszcze potwierdzona przez oficjalne źródła.

Wystrzelony Sep 5, 2025 z Jiuquan Satellite Launch Center

Loading…

Następne Przeloty (najbliższe 24 godziny)

TLE

ŚwieżeSource: Space-Track

Epoka: Sep 14, 2026, 11:30 UTC

1 65490U 25197C   26257.47971591  .00003493  00000-0  14186-3 0  9995
2 65490  97.4110  83.5485 0015582  59.2012 301.0757 15.25141034 56922

Śledź YUNYAO-1 27 w czasie rzeczywistym z AllMySat

Download on the App Store